Preview of NWS' New Version of Forecast
This preview is not operational and should not be used for support decisions.

Regional Weather Roundup (RWR)

Issued by Philadelphia/Mt Holly (PHI)

                            
000
ASUS41 KPHI 240812
RWRPHI

REGIONAL WEATHER ROUNDUP
NATIONAL WEATHER SERVICE MOUNT HOLLY NJ
400 AM EDT FRI MAY 24 2019

NOTE:  "FAIR" INDICATES FEW OR NO CLOUDS BELOW 12,000 FEET WITH NO
SIGNIFICANT WEATHER AND/OR OBSTRUCTIONS TO VISIBILITY.

 * = STATION DOES NOT REPORT PRECIPITATION (E.G. RAIN, SNOW, ETC.) 
        OR FOG.

NJZ015>026-240900-
SOUTHERN NEW JERSEY
  
CITY           SKY/WX    TMP DP  RH WIND       PRES   REMARKS
POMONA         FAIR      71  69  93 W10       29.85F                  
WILDWOOD*      FAIR      71  69  93 W9        29.87F                  
MILLVILLE      FAIR      70  68  93 W8        29.86F                  
WRIGHTSTOWN    FAIR      68  65  90 W7        29.81F                  
MOUNT HOLLY    FAIR      68  64  87 SW5       29.84F                  
TRENTON        FAIR      68  65  90 W5        29.84R                  

$$
NJZ001>014-240900-
NORTHERN NEW JERSEY
  
CITY           SKY/WX    TMP DP  RH WIND       PRES   REMARKS
SUSSEX         FAIR      59  58  96 CALM      29.83R                  
ANDOVER*         N/A     64  58  80 VRB3      29.83S                  
MORRISTOWN     FAIR      66  63  88 SW6       29.81R                  
NEWARK         FAIR      67  64  90 SW8       29.79S                  
TETERBORO      FAIR      69  61  75 W6        29.78S                  
CALDWELL       FAIR      65  63  93 CALM      29.81R                  
SOMERVILLE     FAIR      65  60  84 CALM      29.81R                  
ALLAIRE*       FAIR      67  65  93 W8        29.83S                  
TOMS RIVER*    FAIR      68  67  96 W8        29.84S                  

$$
PAZ043-044-047-054-055-060>062-066>071-240900-
EASTERN PENNSYLVANIA
  
CITY           SKY/WX    TMP DP  RH WIND       PRES   REMARKS
PHILADELPHIA   FAIR      67  65  93 W10       29.86F                  
NORTH PHILA    FAIR      70  63  78 W8        29.86S                  
BLUE BELL*     FAIR      66  64  90 SW5       29.86S                  
DOYLESTOWN     FAIR      67  62  84 W6        29.84S                  
QUAKERTOWN*    CLEAR     68  61  77 W5        29.87                   
PERKASIE*      FAIR      64  64 100 W8        29.87S                  
POTTSTOWN      FAIR      65  63  93 NW3       29.88R                  
LANCASTER      FAIR      69  61  75 NW10      29.89S                  
COATESVILLE    FAIR      66  63  88 W9        29.91S                  
WEST CHESTER   FAIR      66  63  88 W6        29.88S                  
READING        FAIR      68  62  81 W8        29.87R                  
ALLENTOWN      FAIR      69  55  60 W10       29.85S                  
QN CITY/ALNTWN FAIR      64  63  94 SW3       29.88R                  
MOUNT POCONO   FAIR      59  48  67 W20G30    29.86S                  
LEHIGHTON      FAIR      61  54  77 CALM      29.88R                  
WILKES BARRE   FAIR      64  49  57 NW6       29.87S                  

$$
DEZALL-MDZ008-012-015-019-020-240900-
DELAWARE AND EASTERN MARYLAND
  
CITY           SKY/WX    TMP DP  RH WIND       PRES   REMARKS
WILMINGTON     MOCLDY    70  65  84 W7        29.88S                  
DOVER          CLEAR     71  69  95 SW7       29.87F                  
CHESWOLD         N/A     70  68  94 W5        29.88S                  
GEORGETOWN     FAIR      73  71  93 SW7       29.89F                  
EASTON         FAIR      73  71  94 CALM      29.94S                  
STEVENSVILLE   FAIR      70  70 100 W7        29.90S                  
PATUXENT       FAIR      74  73  97 SW13      29.91                   
OCEAN CITY     FAIR      74  71  91 W12       29.90F                  
WALLOPS ISLAND FAIR      77  73  87 SW14      29.92S                  
CAMBRIDGE      PTCLDY    73  72  94 SW6       29.90F                  
SALISBURY      FAIR      73  72  96 SW8       29.91S                  

$$
PAZ001-021-NYZ056-072-MDZ011-DCZ001-240900-
OTHER NEARBY LOCATIONS
  
CITY           SKY/WX    TMP DP  RH WIND       PRES   REMARKS
HARRISBURG     FAIR      68  57  68 W8        29.91R                  
STATE COLLEGE  FAIR      61  49  63 NW8       30.00R                  
WILLIAMSPORT   FAIR      62  48  60 W8        29.91R                  
BINGHAMTON     FAIR      55  46  71 NW12      29.88S                  
NEW YORK CITY  FAIR      68  63  84 W5        29.81F                  
BALTIMORE      FAIR      72  67  84 W8        29.89S                  
WASHINGTON DC  FAIR      72  67  84 S6        29.91F                  

$$